ONEWEB-0018 (45434 NORAD) Tracking and Keplerian Element Data

This shows tracking and keplerian element data for the satellite.

Feedback or suggestion? Click here.




ElementValue
Catalog45434
NameONEWEB-0018
Epoch Orbit23730
Epoch Day34.7711011
Epoch Year2025
RAAN120.4151
Inclination87.8895
Eccentricity0.0001948
Argument of Perigee108.0281
Mean Anonmoly252.1059
Mean Motion13.11416656
Decay Rate2.81E-06
L11 45434U 20020L 25034.77110110 .00000281 00000+0 75623-3 0 9992
L22 45434 87.8895 120.4151 0001948 108.0281 252.1059 13.11416656237306



Live tracking and technical data element details for ONEWEB-0018 (NORAD 45434). ONEWEB-0018 can be tracked NOW for your location showing map with azimuth and elevation plus other details from your city location.







IsCatalogInMostPopularTable: catalog: 45434, numindb: 298
Update: records affected: 1



GetName: 45434 ONEWEB-0018

Hit Count: updated at: Sat, 06 Dec 2025 13:21:38 GMT